Moline, IL

8:56 PM CDT on October 20, 2017 (GMT -0500)
Quad-City International

Weather History for KMLI - September, 2013

Change the Weather History Date:

Tuesday, September 24, 2013

  Actual Average Record
Temperature  
Mean Temperature 62 °F 62 °F  
Max Temperature 78 °F 74 °F 91 °F (2007)
Min Temperature 45 °F 50 °F 30 °F (1989)
Degree Days  
Heating Degree Days 3 5  
Month to date heating degree days 55 58  
Since 1 July heating degree days 66 66  
Cooling Degree Days 0 2  
Month to date cooling degree days 150 97  
Year to date cooling degree days 964 980  
Growing Degree Days 12 (Base 50)    
Moisture  
Dew Point 48 °F    
Average Humidity 66    
Maximum Humidity 93    
Minimum Humidity 38    
Precipitation  
Precipitation 0.00 in 0.09 in 1.41 in (1986)
Month to date precipitation 0.88 2.53  
Year to date precipitation 33.49 29.69  
Snow  
Snow 0.00 in 0.00 in - ()
Month to date snowfall 0.0 0.0  
Since 1 July snowfall 0.0 0.0  
Since 1 September snowfall 0.0 0.0  
Snow Depth 0.00 in    
Sea Level Pressure  
Sea Level Pressure 29.94 in    
Wind  
Wind Speed 8 mph (East)    
Max Wind Speed 20 mph    
Max Gust Speed 23 mph    
Visibility 10 miles    
Events      
T = Trace of Precipitation, MM = Missing Value Source: NWS Daily Summary

Daily Weather History Graph

Daily Weather History Graph

Search for Another Location

Airport or City:

Trip Planner

Search our weather history database for the weather conditions in past years. The results will help you decide how hot, cold, wet, or windy it might be!

Date:

Astronomy

Sep. 24, 2013 Rise Set
Actual Time 6:51 AM CDT 6:55 PM CDT
Civil Twilight 6:24 AM CDT 7:22 PM CDT
Nautical Twilight 5:51 AM CDT 7:55 PM CDT
Astronomical Twilight 5:19 AM CDT 8:27 PM CDT
Moon 10:09 PM CDT (9/24) 12:10 PM CDT (9/24)
Length of Visible Light 12h 58m
Length of Day
12h 03m
Waning Gibbous, 73% of the Moon is Illuminated
Sep 24
Waning Gibbous
Sep 26
Last Quarter
Oct 4
New
Oct 11
First Quarter
Oct 18
Full

Hourly Weather History & Observations

Time (CDT) Temp. Windchill Dew Point Humidity Pressure Visibility Wind Dir Wind Speed Gust Speed Precip Events Conditions
12:52 AM 50.0 °F - 45.0 °F 83% 29.99 in 10.0 mi East 4.6 mph - N/A   Clear
1:52 AM 46.9 °F - 44.1 °F 90% 29.99 in 10.0 mi East 4.6 mph - N/A   Clear
2:52 AM 45.0 °F 42.6 °F 43.0 °F 93% 29.99 in 10.0 mi East 4.6 mph - N/A   Clear
3:52 AM 45.0 °F 41.2 °F 43.0 °F 93% 29.98 in 10.0 mi East 6.9 mph - N/A   Clear
4:52 AM 45.0 °F 42.6 °F 43.0 °F 93% 29.98 in 10.0 mi East 4.6 mph - N/A   Clear
5:52 AM 45.0 °F 41.8 °F 43.0 °F 93% 29.97 in 10.0 mi East 5.8 mph - N/A   Clear
6:52 AM 45.0 °F 42.6 °F 43.0 °F 93% 29.98 in 10.0 mi East 4.6 mph - N/A   Clear
7:52 AM 50.0 °F - 46.9 °F 89% 29.98 in 10.0 mi East 5.8 mph - N/A   Clear
8:52 AM 55.0 °F - 48.9 °F 80% 29.98 in 10.0 mi East 6.9 mph - N/A   Clear
9:52 AM 61.0 °F - 51.1 °F 70% 29.97 in 10.0 mi East 8.1 mph - N/A   Clear
10:52 AM 66.9 °F - 52.0 °F 59% 29.96 in 10.0 mi ESE 5.8 mph - N/A   Clear
11:52 AM 72.0 °F - 52.0 °F 49% 29.95 in 10.0 mi ENE 10.4 mph - N/A   Clear
12:52 PM 75.0 °F - 51.1 °F 43% 29.93 in 10.0 mi ESE 11.5 mph 16.1 mph N/A   Partly Cloudy
1:52 PM 75.9 °F - 51.1 °F 42% 29.91 in 10.0 mi East 12.7 mph 21.9 mph N/A   Clear
2:52 PM 75.0 °F - 50.0 °F 41% 29.90 in 10.0 mi East 15.0 mph - N/A   Clear
3:52 PM 75.0 °F - 48.9 °F 40% 29.89 in 10.0 mi East 13.8 mph - N/A   Clear
4:52 PM 73.9 °F - 50.0 °F 43% 29.89 in 10.0 mi ENE 8.1 mph - N/A   Clear
5:52 PM 73.9 °F - 50.0 °F 43% 29.89 in 10.0 mi ENE 10.4 mph - N/A   Scattered Clouds
6:52 PM 69.1 °F - 52.0 °F 54% 29.88 in 10.0 mi East 6.9 mph - N/A   Clear
7:52 PM 64.0 °F - 51.1 °F 63% 29.88 in 10.0 mi East 6.9 mph - N/A   Clear
8:52 PM 60.1 °F - 52.0 °F 75% 29.89 in 10.0 mi East 6.9 mph - N/A   Clear
9:52 PM 59.0 °F - 51.1 °F 75% 29.90 in 10.0 mi East 5.8 mph - N/A   Clear
10:52 PM 60.1 °F - 50.0 °F 69% 29.92 in 10.0 mi East 8.1 mph - N/A   Scattered Clouds
11:52 PM 61.0 °F - 50.0 °F 67% 29.92 in 10.0 mi East 11.5 mph - N/A   Overcast